Regional Weather Roundup
Issued by NWS

Home | Current Version | Previous Version | Text Only | Print | Product List | Glossary On
Versions: 1 2 3 4 5 6 7 8 9 10 11 12 13 14 15 16 17 18 19 20 21 22 23 24 25 26 27 28 29 30 31 32 33 34 35 36 37 38 39 40 41 42 43 44 45 46 47 48 49 50
000
ASUS45 KBOU 082210
RWRCO

WEATHER ROUNDUP FOR COLORADO
NATIONAL WEATHER SERVICE DENVER/BOULDER CO
300 PM MST MON MAR 08 2021

NOTE: "FAIR" INDICATES FEW OR NO CLOUDS BELOW 12000 FEET WITH NO
SIGNIFICANT WEATHER AND/OR OBSTRUCTIONS TO VISIBILITY.

COZ001>005-013-030-031-082300-
...NORTHWEST COLORADO...

CITY           SKY/WX    TMP DP  RH WIND       PRES   REMARKS
CRAIG          PTSUNNY   54  30  40 S20G29    30.03F
HAYDEN         FAIR      47  28  47 SW12      30.05S
MEEKER         FAIR      52  30  43 S17G31    30.03F
RANGELY        CLOUDY    63  25  23 S17G31    29.96F
RABBIT EARS PA CLOUDY    37  23  56 SW9G18    30.15F
STEAMBOAT SPGS PTSUNNY   50  26  40 SW5       30.03S
WALDEN         CLOUDY    43  24  45 SW12      30.09S
$$

COZ006>008-011-082300-
...WEST CENTRAL VALLEYS...

CITY           SKY/WX    TMP DP  RH WIND       PRES   REMARKS
GRAND JUNCTION CLOUDY    63  25  23 SE18G26   29.99F
MONTROSE       FAIR      59  23  25 W9G20     30.09F
EAGLE          CLOUDY    49  32  52 W12       30.11F
RIFLE          PTSUNNY   57  31  37 MISG      30.05F
DELTA          PTSUNNY   63  26  24 CALM      30.06F
NUCLA          NOT AVBL
$$

COZ017>023-064>068-082300-
...SOUTHWEST COLORADO...

CITY           SKY/WX    TMP DP  RH WIND       PRES   REMARKS
DURANGO        PTSUNNY   55  27  34 VRB3      30.16F
CORTEZ           N/A     65  22  19 MISG      30.09F
PAGOSA SPRINGS FAIR      48  29  48 NE3       30.22S
TELLURIDE      PTSUNNY   45  21  39 SE8       30.21F
WOLF CREEK PAS PTSUNNY   27  27 100 SW32G49   30.31R FOG     WCI  10
$$

COZ009-010-012-014-032>034-037-058>063-082300-
...CENTRAL COLORADO...

CITY           SKY/WX    TMP DP  RH WIND       PRES   REMARKS
ASPEN          CLOUDY    45  27  49 SE6       30.13S
BUENA VISTA    PTSUNNY   51  15  23 SW7       30.11R
COPPER MTN     LGT SNOW  34  23  64 W16         N/A  WCI  23
BERTHOUD PASS  LGT SNOW  23  10  58 NE7       30.20S WCI  15
DAKOTA HILL    FAIR      36  19  51 W17G24    30.15S
COTTONWOOD PAS CLOUDY    41  19  42 W16G36    30.14S
GUNNISON       FAIR      43  30  60 E6        30.16F
GRANBY         CLOUDY    41  28  59 W15G21    30.12R
KREMMLING      CLOUDY    45  30  57 SW15G22   30.11F
LEADVILLE      CLOUDY    35  23  61 S10       30.16R WCI  27
MONARCH PASS   FLURRIES  27  21  80 W28G40    30.35  WCI  11
SALIDA         PTSUNNY   51  23  33 SW12G17   30.21R
SUNLIGHT       FAIR      32  27  80 SW12G26   30.21S WCI  23
WILKERSON PASS CLOUDY    37  16  41 S16G25    30.19S
$$

COZ069>075-082300-
...SAN LUIS VALLEY/SANGRE DE CRISTO MOUNTAINS...

CITY           SKY/WX    TMP DP  RH WIND       PRES   REMARKS
ALAMOSA        CLOUDY    51  25  36 SW14G24   30.18R
DEL NORTE      CLOUDY    48  23  37 SW20G31   30.18R
LA VETA PASS   FAIR      36  23  60 W15G30    30.18R
SAGUACHE       NOT AVBL
$$

COZ035-036-038>040-082300-
...NORTHERN COLORADO FRONT RANGE...

CITY           SKY/WX    TMP DP  RH WIND       PRES   REMARKS
DENVER INTL AP FAIR      68  16  13 NE10      29.90F
AURORA         MOSUNNY   65  13  13 W5        29.91F
WATKINS        NOT AVBL
ERIE           FAIR      68  13  12 NE7       29.91F
BOULDER        FAIR      64  18  16 NE9       29.91S
CENTENNIAL     FAIR      68  15  13 S20G26    29.91F
BROOMFIELD     PTSUNNY   66  16  14 N3        29.93F
FORT COLLINS   FAIR      69  17  13 SE7       29.91F
LONGMONT       FAIR      71  14  11 E6        29.92S
$$

COZ041-046-047-076>085-087-088-082300-
...PIKES PEAK/PALMER DIVIDE AND SOUTHERN FOOTHILLS...

CITY           SKY/WX    TMP DP  RH WIND       PRES   REMARKS
COLO. SPRINGS  FAIR      67  20  16 SW22G31   29.98F
A. F. ACADEMY  PTSUNNY   63  16  16 SW18      29.96S
SCHRIEVER AFB  NOT AVBL
CHEYENNE MTN   FAIR      58  19  21 S15G24    29.96R
ELLICOTT       FAIR      65  15  14 SW20G28   29.99F
FALCON         FAIR      61  11  14 SW12G18   30.02F
FORT CARSON    FAIR      65  21  18 SW16G30   29.95S
LIMON          FAIR      68  13  12 S17       29.93F
MONUMENT HILL  FAIR      59  19  21 SW17G28   30.01S
CANON CITY     FAIR      64  27  24 W21G31    29.98F
WALSENBURG     NOT AVBL
TRINIDAD       FAIR      67  25  20 SW18G33   30.01F
$$

COZ042>045-048>051-090-091-082300-
...NORTHEAST COLORADO...

CITY           SKY/WX    TMP DP  RH WIND       PRES   REMARKS
GREELEY        FAIR      66  18  15 NE5       29.91F
AKRON          FAIR      62  22  21 SE5       29.90F
BURLINGTON     FAIR      67  26  21 S16       29.93F
WRAY           FAIR      64  32  29 SE8       29.90S
YUMA           FAIR      63  28  27 SE7       29.90F
STERLING       FAIR      61  30  31 SW7       29.89S
HOLYOKE        FAIR      63  32  31 S13       29.90F
FORT MORGAN    FAIR      61  21  21 W5        29.91F
$$

COZ086-089-092>099-082300-
...SOUTHEAST COLORADO...

CITY           SKY/WX    TMP DP  RH WIND       PRES   REMARKS
PUEBLO         FAIR      73  21  14 W25G33    29.93F
LA JUNTA       FAIR      76  23  14 W29G38    29.93F
LAMAR          FAIR      74  21  13 SW15      29.90F
SPRINGFIELD      N/A     72  23  16 S17       29.96F
$$




USA.gov is the U.S. government's official web portal to all federal, state and local government web resources and services.